Location: Newark
(7.0858°N, 171.3717°E)
Time: 02:33:12
(UTC+00:00)

Transit 4A - Pass Details

Date: 02 December 2020
Orbit: 864 x 980 km, 66.8° (Epoch: 20 January)

Event Time Altitude Azimuth Distance (km) Brightness Sun altitude
Rises 05:22:44 0° 354° (N) 3,601 10.8 11.3°
Reaches altitude 10° 05:25:29 10° 2° (N) 2,640 10.1 10.7°
Maximum altitude 05:31:08 38° 69° (ENE) 1,362 8.5 9.4°
Drops below altitude 10° 05:36:36 10° 136° (SE) 2,568 10.0 8.2°
Sets 05:39:14 0° 143° (SE) 3,492 10.8 7.6°
